Cloud_Cover
58 70 50 5 5 5 5 5 12 2 2 18 34 34 30 36 62 78 48 72 88 31 100 70 95 100 100 96 76 24 15 9 0 0 0 0 0 0 0 0 0 0 0
80 29 79 86 50 7 5 9 5 5 13 24 85 78 23 77 38 5 2 0 0 0 0 0 18 14 28 47 77 51 99 85 29 16 0 0 0 0 3 0 0 0 0
100 86 47 98 100 98 5 7 8 39 95 100 100 99 74 19 5 0 0 0 0 0 0 0 0 0 0 0 0 2 68 55 63 45 3 0 0 1 5 0 0 0 0
72 100 96 100 100 81 66 18 100 100 100 100 36 7 0 0 0 0 0 0 0 0 0 0 0 0 0 0 0 0 0 0 0 0 0 0 0 1 32 0 0 0 0
98 99 100 100 100 94 99 100 100 100 36 5 5 5 1 0 0 0 0 0 0 0 0 0 0 0 0 0 0 0 0 0 0 0 0 0 0 0 9 2 0 0 0
100 100 100 100 100 100 100 100 100 100 100 82 5 5 5 5 4 0 0 0 0 0 0 0 0 0 0 0 0 0 0 0 0 0 0 0 0 0 0 0 84 3 1
100 100 100 100 100 100 98 42 100 90 81 100 30 5 5 5 5 0 0 0 0 4 0 0 0 0 0 0 0 0 0 0 0 6 0 0 0 0 0 11 0 0 0
91 100 100 100 100 94 100 100 100 100 85 7 5 51 18 5 52 10 3 0 0 0 0 0 0 0 0 0 0 0 0 0 8 21 27 16 0 13 31 20 0 0 0
88 100 99 100 100 100 100 100 100 100 56 32 5 5 5 5 4 2 0 0 0 0 0 0 0 0 0 0 0 0 0 0 0 0 14 24 0 0 3 13 10 18 6
100 100 100 68 79 100 100 100 100 100 36 5 5 5 5 5 3 5 4 0 5 5 3 1 0 0 0 0 0 0 2 1 0 0 8 40 4 10 50 17 10 34 11
100 100 79 71 95 80 100 100 100 80 5 5 5 5 5 5 5 5 5 4 5 5 5 4 5 5 5 3 2 5 5 5 5 0 6 0 14 52 44 15 10 20 93
100 100 82 65 51 100 100 75 98 100 5 6 26 5 5 5 5 5 5 5 5 5 5 5 5 5 61 20 5 5 5 10 3 0 0 1 3 9 8 0 3 3 23
100 100 79 100 94 100 100 100 28 10 5 7 100 57 9 21 5 4 5 5 5 5 5 5 3 5 59 40 5 5 5 5 4 3 5 5 32 16 89 18 35 2 4
100 100 100 78 100 99 100 100 100 70 38 91 100 100 70 82 24 8 5 5 5 5 5 5 2 5 42 11 72 42 31 75 5 89 59 6 18 56 40 21 95 50 39
100 100 100 86 96 97 100 74 52 92 100 100 100 100 46 9 6 36 5 9 5 5 5 5 4 5 5 5 64 5 18 68 83 91 100 38 5 34 41 56 79 80 77
100 100 100 99 41 88 100 100 100 96 100 100 99 83 5 5 5 5 5 5 5 4 3 4 5 5 5 60 12 5 5 51 35 100 100 54 5 5 5 18 0 42 31
100 100 100 98 59 66 27 93 100 98 84 43 23 24 14 35 5 5 5 5 5 4 1 5 5 5 74 6 5 5 5 8 85 100 84 5 5 1 5 5 4 4 0
100 100 100 96 81 45 50 37 56 80 100 100 70 60 11 6 11 27 35 58 18 8 8 5 5 5 5 5 5 5 10 23 89 50 85 3 0 5 5 5 5 0 0
100 100 100 62 89 93 99 10 5 5 92 100 98 58 59 15 46 11 56 100 96 64 19 33 35 54 47 5 47 81 9 30 100 5 3 3 2 5 5 5 0 0 0
100 100 100 59 78 73 68 39 4 5 34 38 39 100 64 28 72 77 82 98 57 60 56 8 51 84 72 76 68 51 50 52 30 5 4 5 5 5 1 0 0 0 0
100 100 100 99 61 42 5 5 5 5 5 4 5 19 45 47 64 98 61 36 25 49 19 78 36 45 89 94 38 9 5 5 5 30 7 7 2 0 0 0 0 0 0
100 100 100 95 100 9 15 74 6 5 5 59 5 5 18 44 28 12 58 62 86 86 88 90 48 70 64 29 31 62 100 100 99 84 3 0 0 0 0 0 0 0 0
100 100 100 93 92 100 68 9 5 25 52 22 65 61 28 8 16 55 61 36 5 5 5 5 5 5 4 4 16 4 12 10 1 0 0 0 0 0 0 0 0 0 0
100 100 100 100 100 100 100 27 67 16 24 77 86 72 5 25 38 5 5 5 5 5 5 5 5 5 5 5 2 0 0 0 0 0 0 0 0 0 0 0 0 0 0
100 100 100 100 100 100 100 85 93 90 100 98 84 90 38 98 40 5 5 5 5 5 5 5 5 5 5 0 0 0 0 0 0 0 0 0 0 0 0 0 0 0 0
100 100 100 100 100 100 100 100 100 100 100 90 16 5 47 95 8 5 5 5 5 49 5 5 5 5 4 0 0 0 0 0 0 0 0 0 0 0 0 0 0 0 0